User: anonymous
Location: Unspecified
(0.0000°N, 0.0000°E)
Time: 09:32:51
(UTC+02:00)
Language:

Cosmos 2263 Rocket - Orbit

View from above orbital plane
View from above orbital plane
View from above satellite
View from above satellite

Ground track
Ground track

The orbit data is extracted from the following two-line orbital elements,

1 22803U 93059B   14259.43036255 -.00000157  00000-0 -54313-4 0  3630
2 22803 070.9908 206.5573 0015098 118.4702 241.7944 14.16674076 85987
Epoch (UTC): 16 September 2014 10:19:43
Eccentricity: 0.0015098
inclination: 70.9908°
perigee height: 826 km
apogee height: 847 km
right ascension of ascending node: 206.5573°
argument of perigee: 118.4702°
revolutions per day: 14.16674076
mean anomaly at epoch: 241.7944°
orbit number at epoch: 8598

The dashed part of the orbit path shows where the satellite is in the earth's shadow,  

DLR